User: anonymous   Login
Location: *
(37.5724°S, 58.0067°E)
Time: 10:50:54
(UTC+00:00)
Language:

In-Cosmos 22 - Orbit

View from above orbital plane
View from above orbital plane
View from above satellite
View from above satellite

Ground track
Ground track

The orbit data is extracted from the following two-line orbital elements,

1 12645U 81075A   21170.83379934  .00000013  00000-0 -85953-7 0  9998
2 12645  81.2171 212.7791 0064349  39.8660 320.7216 14.18396503 61544
Epoch (UTC): 19 June 2021 20:00:40
Eccentricity: 0.0064349
inclination: 81.2171°
perigee height: 784 km
apogee height: 877 km
right ascension of ascending node: 212.7791°
argument of perigee: 39.8660°
revolutions per day: 14.18396503
mean anomaly at epoch: 320.7216°
orbit number at epoch: 6154

The dashed part of the orbit path shows where the satellite is in the earth's shadow,  

DLR